Marfa, TX

10:40 AM CDT on April 20, 2018 (GMT -0500)
Marfa Municipal

Weather History for KMRF - November, 2014

Change the Weather History Date:

Wednesday, November 12, 2014

  Actual Average Record
Temperature  
Mean Temperature 34 °F -  
Max Temperature 41 °F 63 °F 78 °F (2003)
Min Temperature 24 °F 35 °F 24 °F (2012)
Degree Days  
Heating Degree Days 32    
Moisture  
Dew Point 24 °F    
Average Humidity 70    
Maximum Humidity 93    
Minimum Humidity 45    
Precipitation  
Precipitation 0.00 in - - ()
Sea Level Pressure  
Sea Level Pressure 30.20 in    
Wind  
Wind Speed 11 mph (NE)    
Max Wind Speed 21 mph    
Max Gust Speed 25 mph    
Visibility 10 miles    
Events      
Averages and records for this station are not official NWS values.
T = Trace of Precipitation, MM = Missing Value Source: NWS Daily Summary

Daily Weather History Graph

Daily Weather History Graph

Search for Another Location

Airport or City:

Astronomy

Nov. 12, 2014 Rise Set
Actual Time 7:19 AM CST 6:00 PM CST
Civil Twilight 6:54 AM CST 6:26 PM CST
Nautical Twilight 6:25 AM CST 6:54 PM CST
Astronomical Twilight 5:56 AM CST 7:23 PM CST
Moon 11:19 PM CST (11/12) 12:08 PM CST (11/12)
Length of Visible Light 11h 32m
Length of Day
10h 41m
Waning Gibbous, 68% of the Moon is Illuminated
Nov 12
Waning Gibbous
Nov 14
Last Quarter
Nov 22
New
Nov 29
First Quarter
Dec 6
Full

Hourly Weather History & Observations

Time (CST) Temp. Windchill Dew Point Humidity Pressure Visibility Wind Dir Wind Speed Gust Speed Precip Events Conditions
12:15 AM 35.6 °F 32.8 °F 33.8 °F 93% 30.12 in 10.0 mi North 3.5 mph - N/A   Clear
12:35 AM 35.6 °F 30.7 °F 33.8 °F 93% 30.12 in 10.0 mi North 5.8 mph - N/A   Clear
12:55 AM 35.6 °F 29.9 °F 33.8 °F 93% 30.12 in 10.0 mi North 6.9 mph - N/A   Clear
1:15 AM 35.6 °F 30.7 °F 33.8 °F 93% 30.12 in 10.0 mi North 5.8 mph - N/A   Clear
1:35 AM 35.6 °F 29.9 °F 33.8 °F 93% 30.12 in 10.0 mi NNE 6.9 mph - N/A   Clear
1:55 AM 35.6 °F 29.2 °F 33.8 °F 93% 30.12 in 10.0 mi NNE 8.1 mph - N/A   Clear
2:15 AM 37.4 °F 31.4 °F 33.8 °F 87% 30.13 in 10.0 mi NNE 8.1 mph - N/A   Clear
2:35 AM 37.4 °F 30.3 °F 33.8 °F 87% 30.13 in 10.0 mi NNE 10.4 mph - N/A   Clear
2:55 AM 37.4 °F 30.8 °F 33.8 °F 87% 30.13 in 10.0 mi NNE 9.2 mph - N/A   Clear
3:15 AM 35.6 °F 29.9 °F 32.0 °F 87% 30.13 in 10.0 mi NE 6.9 mph - N/A   Clear
3:35 AM 35.6 °F 29.2 °F 30.2 °F 81% 30.14 in 10.0 mi NE 8.1 mph - N/A   Clear
3:55 AM 35.6 °F 29.9 °F 30.2 °F 81% 30.15 in 10.0 mi NNE 6.9 mph - N/A   Clear
4:15 AM 35.6 °F 30.7 °F 30.2 °F 81% 30.15 in 10.0 mi NE 5.8 mph - N/A   Clear
4:35 AM 33.8 °F 28.6 °F 30.2 °F 87% 30.15 in 10.0 mi North 5.8 mph - N/A   Clear
4:55 AM 33.8 °F 27.0 °F 28.4 °F 81% 30.15 in 10.0 mi NNE 8.1 mph - N/A   Clear
5:15 AM 33.8 °F 28.6 °F 28.4 °F 81% 30.15 in 10.0 mi NNE 5.8 mph - N/A   Clear
5:35 AM 33.8 °F 26.4 °F 28.4 °F 81% 30.15 in 10.0 mi NNE 9.2 mph - N/A   Clear
5:55 AM 32.0 °F 25.6 °F 28.4 °F 87% 30.15 in 10.0 mi NNE 6.9 mph - N/A   Clear
6:15 AM 32.0 °F 24.2 °F 28.4 °F 87% 30.16 in 10.0 mi NE 9.2 mph - N/A   Clear
6:35 AM 30.2 °F 21.3 °F 26.6 °F 86% 30.17 in 10.0 mi NE 10.4 mph - N/A   Clear
6:55 AM 30.2 °F 20.8 °F 26.6 °F 86% 30.18 in 10.0 mi NE 11.5 mph - N/A   Clear
7:15 AM 28.4 °F 19.1 °F 26.6 °F 93% 30.18 in 10.0 mi NE 10.4 mph - N/A   Clear
7:35 AM 28.4 °F 18.5 °F 24.8 °F 86% 30.19 in 10.0 mi NE 11.5 mph - N/A   Clear
7:55 AM 28.4 °F 17.5 °F 24.8 °F 86% 30.20 in 10.0 mi NE 13.8 mph 17.3 mph N/A   Clear
8:15 AM 28.4 °F 16.6 °F 24.8 °F 86% 30.20 in 10.0 mi NE 16.1 mph 24.2 mph N/A   Clear
8:35 AM 30.2 °F 19.3 °F 24.8 °F 80% 30.21 in 10.0 mi NE 15.0 mph 19.6 mph N/A   Clear
8:55 AM 30.2 °F 18.5 °F 24.8 °F 80% 30.21 in 10.0 mi NE 17.3 mph - N/A   Clear
9:15 AM 30.2 °F 17.4 °F 24.8 °F 80% 30.22 in 10.0 mi NE 20.7 mph 25.3 mph N/A   Clear
9:35 AM 30.2 °F 17.8 °F 24.8 °F 80% 30.22 in 10.0 mi NE 19.6 mph - N/A   Mostly Cloudy
9:55 AM 32.0 °F 20.5 °F 24.8 °F 75% 30.23 in 10.0 mi NE 18.4 mph - N/A   Overcast
10:15 AM 32.0 °F 20.5 °F 24.8 °F 75% 30.24 in 10.0 mi ENE 18.4 mph - N/A   Overcast
10:35 AM 33.8 °F 23.2 °F 24.8 °F 70% 30.25 in 10.0 mi NE 17.3 mph - N/A   Overcast
10:55 AM 33.8 °F 22.5 °F 24.8 °F 70% 30.24 in 10.0 mi ENE 19.6 mph - N/A   Overcast
11:15 AM 33.8 °F 22.8 °F 24.8 °F 70% 30.24 in 10.0 mi ENE 18.4 mph 25.3 mph N/A   Overcast
11:35 AM 35.6 °F 25.2 °F 24.8 °F 65% 30.23 in 10.0 mi NE 18.4 mph - N/A   Overcast
11:55 AM 37.4 °F 27.5 °F 24.8 °F 60% 30.23 in 10.0 mi ENE 18.4 mph 23.0 mph N/A   Overcast
12:15 PM 37.4 °F 27.5 °F 24.8 °F 60% 30.22 in 10.0 mi ENE 18.4 mph 23.0 mph N/A   Overcast
12:35 PM 39.2 °F 30.2 °F 24.8 °F 56% 30.21 in 10.0 mi NE 17.3 mph 23.0 mph N/A   Overcast
12:55 PM 39.2 °F 29.8 °F 24.8 °F 56% 30.20 in 10.0 mi NE 18.4 mph - N/A   Partly Cloudy
1:15 PM 39.2 °F 29.8 °F 24.8 °F 56% 30.19 in 10.0 mi ENE 18.4 mph - N/A   Clear
1:35 PM 41.0 °F 33.1 °F 24.8 °F 53% 30.19 in 10.0 mi ENE 15.0 mph 20.7 mph N/A   Scattered Clouds
1:55 PM 41.0 °F 32.8 °F 24.8 °F 53% 30.19 in 10.0 mi ENE 16.1 mph - N/A   Overcast
2:15 PM 41.0 °F 32.8 °F 24.8 °F 53% 30.19 in 10.0 mi ENE 16.1 mph - N/A   Overcast
2:35 PM 41.0 °F 32.2 °F 24.8 °F 53% 30.18 in 10.0 mi ENE 18.4 mph - N/A   Overcast
2:55 PM 41.0 °F 32.8 °F 24.8 °F 53% 30.18 in 10.0 mi ENE 16.1 mph 21.9 mph N/A   Mostly Cloudy
3:15 PM 41.0 °F 32.5 °F 24.8 °F 53% 30.18 in 10.0 mi ENE 17.3 mph 20.7 mph N/A   Partly Cloudy
3:35 PM 41.0 °F 32.2 °F 23.0 °F 49% 30.18 in 10.0 mi NE 18.4 mph 21.9 mph N/A   Clear
3:55 PM 39.2 °F 30.2 °F 23.0 °F 52% 30.18 in 10.0 mi NE 17.3 mph 20.7 mph N/A   Clear
4:15 PM 41.0 °F 31.6 °F 21.2 °F 45% 30.19 in 10.0 mi ENE 20.7 mph - N/A   Clear
4:35 PM 39.2 °F 29.8 °F 21.2 °F 49% 30.19 in 10.0 mi NE 18.4 mph 23.0 mph N/A   Clear
4:55 PM 37.4 °F 28.2 °F 19.4 °F 48% 30.19 in 10.0 mi NE 16.1 mph 21.9 mph N/A   Clear
5:15 PM 35.6 °F 25.2 °F 19.4 °F 52% 30.20 in 10.0 mi NE 18.4 mph - N/A   Clear
5:35 PM 33.8 °F 23.5 °F 19.4 °F 56% 30.21 in 10.0 mi NE 16.1 mph 20.7 mph N/A   Clear
5:55 PM 33.8 °F 24.3 °F 17.6 °F 52% 30.22 in 10.0 mi NE 13.8 mph - N/A   Clear
6:15 PM 32.0 °F 21.6 °F 17.6 °F 55% 30.22 in 10.0 mi NE 15.0 mph 20.7 mph N/A   Clear
6:35 PM 30.2 °F 19.3 °F 17.6 °F 60% 30.23 in 10.0 mi NE 15.0 mph - N/A   Clear
6:55 PM 30.2 °F 21.3 °F 17.6 °F 60% 30.25 in 10.0 mi NE 10.4 mph - N/A   Clear
7:15 PM 30.2 °F 19.8 °F 17.6 °F 60% 30.24 in 10.0 mi NE 13.8 mph 21.9 mph N/A   Clear
7:35 PM 28.4 °F 17.0 °F 15.8 °F 59% 30.25 in 10.0 mi NE 15.0 mph - N/A   Clear
7:55 PM 28.4 °F 17.5 °F 15.8 °F 59% 30.25 in 10.0 mi NE 13.8 mph - N/A   Clear
8:15 PM 28.4 °F 18.0 °F 15.8 °F 59% 30.26 in 10.0 mi NE 12.7 mph - N/A   Clear
8:35 PM 28.4 °F 18.0 °F 15.8 °F 59% 30.27 in 10.0 mi NE 12.7 mph 19.6 mph N/A   Clear
8:55 PM 28.4 °F 17.0 °F 15.8 °F 59% 30.27 in 10.0 mi NE 15.0 mph - N/A   Clear
9:15 PM 26.6 °F 13.8 °F 15.8 °F 64% 30.26 in 10.0 mi NE 17.3 mph - N/A   Clear
9:35 PM 26.6 °F 15.2 °F 14.0 °F 59% 30.28 in 10.0 mi NE 13.8 mph - N/A   Clear
9:55 PM 26.6 °F 15.2 °F 14.0 °F 59% 30.28 in 10.0 mi NE 13.8 mph - N/A   Clear
10:15 PM 26.6 °F 14.7 °F 14.0 °F 59% 30.30 in 10.0 mi NE 15.0 mph - N/A   Clear
10:35 PM 26.6 °F 15.7 °F 14.0 °F 59% 30.30 in 10.0 mi NE 12.7 mph - N/A   Clear
10:55 PM 26.6 °F 15.2 °F 14.0 °F 59% 30.30 in 10.0 mi NE 13.8 mph - N/A   Clear
11:15 PM 26.6 °F 16.2 °F 14.0 °F 59% 30.31 in 10.0 mi NE 11.5 mph - N/A   Clear
11:35 PM 26.6 °F 18.2 °F 15.8 °F 64% 30.32 in 10.0 mi NNE 8.1 mph - N/A   Clear
11:55 PM 24.8 °F 16.1 °F 15.8 °F 69% 30.32 in 10.0 mi NE 8.1 mph - N/A   Clear